Home   Weather   Oral   Past weeks

Flag for Kazakhstan Past Weather in Oral, Kazakhstan — Yesterday and Last 2 Weeks

Now
12 °F

Light snow. Ice fog.


Feels Like: 1 °F
Forecast: 5 / 24 °F
Wind: 8 mph from Northeast

Location: Uralsk

Current Time: Dec 5, 2016 at 7:44:37 am

Latest Report: Dec 5, 2016 at 7:00 am


Visibility: 3 mi

Pressure: 29.98 "Hg

Humidity: 92%

Dew Point: 10 °F

Location of OralLocation

Past Weather in Oral — Graph

°F

Oral Temperature Yesterday

Maximum temperature yesterday: 19 °F (at 12:00 am)
Minimum temperature yesterday: 0 °F (at 9:00 pm)
Average temperature yesterday: 10 °F

High & Low Weather Summary for the Past Weeks

 TemperatureHumidityPressure
High41 °F (Nov 29, 2:00 am)100% (Nov 24, 10:00 pm)31.34 "Hg (Nov 24, 10:00 pm)
Low-6 °F (Nov 21, 6:30 am)33% (Nov 22, 3:00 pm)29.42 "Hg (Dec 3, 3:30 pm)
Average20 °F84%30.28 "Hg
* Reported Nov 20 6:00 am — Dec 5 6:30 am, Oral, Weather by CustomWeather, © 2016

Note: Actual official high and low records may vary slightly from our data, if they occured in-between our weather recording intervals... More about our weather records

Advertising

Oral Weather History for the Previous 24 Hours

Scroll right to see more
 ConditionsComfort  
Time TempWeatherWind HumidityBarometerVisibility
6:30 am
Mon, Dec 5
12 °FLight snow. Ice fog.6 mph92%29.98 "Hg3 mi
6:00 am12 °FLight snow. Ice fog.6 mph92%29.98 "Hg2 mi
5:30 am12 °FLight snow. Ice fog.6 mph92%29.98 "Hg3 mi
5:00 am12 °FLight snow. Ice fog.6 mph85%29.98 "Hg3 mi
4:00 am12 °FLight snow. Mostly cloudy.6 mph92%30.01 "Hg4 mi
3:00 am12 °FLight snow. Ice fog.3 mph92%30.01 "Hg3 mi
2:00 am12 °FLight snow. Ice fog.3 mph92%30.01 "Hg1 mi
1:00 am10 °FLight snow. Ice fog.3 mph92%30.01 "Hg2 mi
12:00 am10 °FLight snow. Ice fog.3 mph92%30.01 "Hg2 mi
11:30 pm
Sun, Dec 4
9 °FLight snow. Ice fog.3 mph92%30.01 "Hg1 mi
11:00 pm7 °FLight snow. Ice fog.3 mph92%30.01 "Hg1 mi
10:30 pm5 °FLight snow. Ice fog.3 mph85%30.01 "Hg2 mi
10:00 pm1 °FMostly cloudy.3 mph85%30.01 "Hg6 mi
9:30 pm0 °FMostly cloudy.3 mph92%30.01 "Hg5 mi
9:00 pm0 °FPassing clouds.No wind92%30.01 "Hg6 mi
8:30 pm1 °FPartly cloudy.3 mph85%30.01 "Hg5 mi
8:00 pm1 °FPartly cloudy.1 mph92%30.01 "Hg4 mi
7:30 pm3 °FPartly cloudy.No wind85%29.98 "Hg5 mi
7:00 pm5 °FMostly cloudy.1 mph92%29.98 "Hg6 mi
6:30 pm5 °FClear.1 mph85%29.98 "Hg10 mi
6:00 pm9 °FClear.No wind85%29.95 "Hg10 mi
5:30 pm9 °FClear.3 mph92%29.95 "Hg10 mi
5:00 pm10 °FSunny.6 mph85%29.95 "Hg10 mi
4:30 pm16 °FSunny.6 mph79%29.92 "Hg10 mi
4:00 pm18 °FSunny.8 mph79%29.92 "Hg10 mi
3:30 pm19 °FBroken clouds.6 mph73%29.92 "HgN/A
3:00 pm19 °FBroken clouds.6 mph73%29.89 "HgN/A
2:30 pm18 °FBroken clouds.6 mph79%29.89 "HgN/A
2:00 pm18 °FBroken clouds.6 mph79%29.89 "HgN/A
1:30 pm18 °FBroken clouds.8 mph79%29.89 "HgN/A
1:00 pm18 °FBroken clouds.8 mph79%29.86 "HgN/A
12:30 pm14 °FBroken clouds.6 mph92%29.86 "HgN/A
12:00 pm14 °FMostly cloudy.3 mph85%29.86 "HgN/A
11:30 am12 °FMostly cloudy.3 mph92%29.83 "HgN/A
11:00 am14 °FPartly sunny.8 mph92%29.83 "HgN/A
10:30 am12 °FPartly sunny.8 mph92%29.83 "HgN/A
10:00 am7 °FMostly cloudy.6 mph92%29.80 "HgN/A
9:30 am5 °FMostly cloudy.3 mph92%29.80 "HgN/A
9:00 am5 °FClear.6 mph85%29.80 "Hg10 mi
8:30 am5 °FPassing clouds.3 mph92%29.77 "HgN/A
8:00 am7 °FClear.8 mph92%29.77 "Hg10 mi
7:30 am7 °FClear.8 mph92%29.77 "Hg10 mi
7:00 am9 °FClear.10 mph92%29.74 "Hg10 mi
Weather by CustomWeather, © 2016

See weather overviewHow to use our weather pages